Time,TemperatureF,DewpointF,PressureIn,WindDirection,WindDirectionDegrees,WindSpeedMPH,WindSpeedGustMPH,Humidity,HourlyPrecipIn,Conditions,Clouds,dailyrainin,SoftwareType,DateUTC
2013-02-16 00:00:00,25.1,17.0,30.19,WNW,297,0.0,5.0,71,0.00,,,0.00,Wunderground v.1.15,2013-02-16 05:00:00,
2013-02-16 00:04:00,25.2,16.8,30.19,WNW,297,1.0,5.0,70,0.00,,,0.00,Wunderground v.1.15,2013-02-16 05:04:00,
2013-02-16 00:05:00,25.2,16.8,30.19,WNW,297,1.0,5.0,70,0.00,,,0.00,Wunderground v.1.15,2013-02-16 05:05:00,
2013-02-16 00:08:00,25.3,16.9,30.19,WNW,297,1.0,5.0,70,0.00,,,0.00,Wunderground v.1.15,2013-02-16 05:08:00,
2013-02-16 00:14:00,25.2,16.8,30.19,WNW,297,1.0,5.0,70,0.00,,,0.00,Wunderground v.1.15,2013-02-16 05:14:00,
2013-02-16 00:20:00,24.9,16.8,30.19,WNW,297,0.0,5.0,71,0.00,,,0.00,Wunderground v.1.15,2013-02-16 05:20:00,
2013-02-16 00:26:00,24.7,17.0,30.19,WNW,297,0.0,5.0,72,0.00,,,0.00,Wunderground v.1.15,2013-02-16 05:26:00,
2013-02-16 00:32:00,24.4,17.0,30.19,WNW,297,0.0,5.0,73,0.00,,,0.00,Wunderground v.1.15,2013-02-16 05:32:00,
2013-02-16 00:38:00,24.5,17.1,30.18,WNW,297,0.0,5.0,73,0.00,,,0.00,Wunderground v.1.15,2013-02-16 05:38:00,
2013-02-16 00:44:00,24.6,16.9,30.18,SW,232,1.0,5.0,72,0.00,,,0.00,Wunderground v.1.15,2013-02-16 05:44:00,
2013-02-16 00:50:00,23.4,15.7,30.18,SSW,207,1.0,5.0,72,0.00,,,0.00,Wunderground v.1.15,2013-02-16 05:50:00,
2013-02-16 00:56:00,22.3,15.9,30.18,South,186,2.0,5.0,76,0.00,,,0.00,Wunderground v.1.15,2013-02-16 05:56:00,
2013-02-16 01:02:00,21.7,16.2,30.18,South,186,2.0,5.0,79,0.00,,,0.00,Wunderground v.1.15,2013-02-16 06:02:00,
2013-02-16 01:08:00,21.5,16.3,30.18,South,186,1.0,5.0,80,0.00,,,0.00,Wunderground v.1.15,2013-02-16 06:08:00,
2013-02-16 01:14:00,21.5,16.3,30.18,South,186,1.0,5.0,80,0.00,,,0.00,Wunderground v.1.15,2013-02-16 06:14:00,
2013-02-16 01:20:00,21.5,16.3,30.18,South,186,0.0,5.0,80,0.00,,,0.00,Wunderground v.1.15,2013-02-16 06:20:00,
2013-02-16 01:26:00,21.5,16.3,30.18,South,186,0.0,5.0,80,0.00,,,0.00,Wunderground v.1.15,2013-02-16 06:26:00,
2013-02-16 01:31:00,21.6,16.4,30.18,South,186,0.0,5.0,80,0.00,,,0.00,Wunderground v.1.15,2013-02-16 06:31:00,
2013-02-16 01:37:00,21.6,16.7,30.18,South,186,0.0,5.0,81,0.00,,,0.00,Wunderground v.1.15,2013-02-16 06:37:00,
2013-02-16 01:43:00,21.6,17.0,30.18,South,186,0.0,5.0,82,0.00,,,0.00,Wunderground v.1.15,2013-02-16 06:43:00,
2013-02-16 01:48:00,21.8,16.9,30.18,South,186,0.0,5.0,81,0.00,,,0.00,Wunderground v.1.15,2013-02-16 06:48:00,
2013-02-16 01:54:00,22.1,16.9,30.18,South,186,0.0,5.0,80,0.00,,,0.00,Wunderground v.1.15,2013-02-16 06:54:00,
2013-02-16 02:00:00,22.1,17.7,30.18,South,186,0.0,5.0,83,0.00,,,0.00,Wunderground v.1.15,2013-02-16 07:00:00,
2013-02-16 02:06:00,21.6,17.2,30.18,South,186,0.0,5.0,83,0.00,,,0.00,Wunderground v.1.15,2013-02-16 07:06:00,
2013-02-16 02:12:00,21.4,17.3,30.17,South,186,0.0,5.0,84,0.00,,,0.00,Wunderground v.1.15,2013-02-16 07:12:00,
2013-02-16 02:18:00,21.4,17.3,30.17,South,186,0.0,5.0,84,0.00,,,0.00,Wunderground v.1.15,2013-02-16 07:18:00,
2013-02-16 02:24:00,21.3,17.2,30.17,South,191,0.0,5.0,84,0.00,,,0.00,Wunderground v.1.15,2013-02-16 07:24:00,
2013-02-16 02:30:00,21.5,17.4,30.17,WSW,246,1.0,5.0,84,0.00,,,0.00,Wunderground v.1.15,2013-02-16 07:30:00,
2013-02-16 02:36:00,21.5,17.4,30.17,WSW,247,1.0,5.0,84,0.00,,,0.00,Wunderground v.1.15,2013-02-16 07:36:00,
2013-02-16 02:42:00,21.5,17.4,30.17,WSW,247,0.0,5.0,84,0.00,,,0.00,Wunderground v.1.15,2013-02-16 07:42:00,
2013-02-16 02:48:00,21.5,17.4,30.17,WSW,247,1.0,5.0,84,0.00,,,0.00,Wunderground v.1.15,2013-02-16 07:48:00,
2013-02-16 02:53:00,21.6,17.5,30.17,West,272,1.0,5.0,84,0.00,,,0.00,Wunderground v.1.15,2013-02-16 07:53:00,
2013-02-16 02:59:00,21.5,17.4,30.17,West,272,2.0,5.0,84,0.00,,,0.00,Wunderground v.1.15,2013-02-16 07:59:00,
2013-02-16 03:05:00,21.5,17.7,30.16,West,272,2.0,5.0,85,0.00,,,0.00,Wunderground v.1.15,2013-02-16 08:05:00,
2013-02-16 03:11:00,21.9,17.8,30.16,West,272,2.0,5.0,84,0.00,,,0.00,Wunderground v.1.15,2013-02-16 08:11:00,
2013-02-16 03:17:00,22.3,17.9,30.16,West,272,2.0,5.0,83,0.00,,,0.00,Wunderground v.1.15,2013-02-16 08:17:00,
2013-02-16 03:23:00,22.6,17.9,30.16,West,278,2.0,5.0,82,0.00,,,0.00,Wunderground v.1.15,2013-02-16 08:23:00,
2013-02-16 03:29:00,22.5,17.8,30.16,WNW,287,2.0,5.0,82,0.00,,,0.00,Wunderground v.1.15,2013-02-16 08:29:00,
2013-02-16 03:35:00,22.5,17.8,30.16,WNW,287,3.0,5.0,82,0.00,,,0.00,Wunderground v.1.15,2013-02-16 08:35:00,
2013-02-16 03:41:00,22.2,17.5,30.16,WNW,287,3.0,5.0,82,0.00,,,0.00,Wunderground v.1.15,2013-02-16 08:41:00,
2013-02-16 03:47:00,22.2,17.5,30.16,NW,306,3.0,5.0,82,0.00,,,0.00,Wunderground v.1.15,2013-02-16 08:47:00,
2013-02-16 03:53:00,22.5,17.8,30.15,NW,308,4.0,5.0,82,0.00,,,0.00,Wunderground v.1.15,2013-02-16 08:53:00,
2013-02-16 03:59:00,22.7,17.7,30.15,NW,310,4.0,5.0,81,0.00,,,0.00,Wunderground v.1.15,2013-02-16 08:59:00,
2013-02-16 04:05:00,22.8,17.8,30.15,NW,312,4.0,6.0,81,0.00,,,0.00,Wunderground v.1.15,2013-02-16 09:05:00,
2013-02-16 04:10:00,22.9,17.7,30.15,WNW,303,4.0,6.0,80,0.00,,,0.00,Wunderground v.1.15,2013-02-16 09:10:00,
2013-02-16 04:16:00,22.7,17.5,30.15,WNW,301,4.0,5.0,80,0.00,,,0.00,Wunderground v.1.15,2013-02-16 09:16:00,
2013-02-16 04:22:00,22.6,17.4,30.15,WNW,297,3.0,5.0,80,0.00,,,0.00,Wunderground v.1.15,2013-02-16 09:22:00,
2013-02-16 04:28:00,22.6,17.4,30.15,WNW,299,3.0,5.0,80,0.00,,,0.00,Wunderground v.1.15,2013-02-16 09:28:00,
2013-02-16 04:34:00,22.6,17.6,30.15,WNW,301,3.0,5.0,81,0.00,,,0.00,Wunderground v.1.15,2013-02-16 09:34:00,
2013-02-16 04:40:00,22.5,17.5,30.15,NW,326,4.0,5.0,81,0.00,,,0.00,Wunderground v.1.15,2013-02-16 09:40:00,
2013-02-16 04:46:00,22.5,17.5,30.15,NNW,328,4.0,5.0,81,0.00,,,0.00,Wunderground v.1.15,2013-02-16 09:46:00,
2013-02-16 04:52:00,22.4,17.5,30.15,NW,322,4.0,6.0,81,0.00,,,0.00,Wunderground v.1.15,2013-02-16 09:52:00,
2013-02-16 04:58:00,22.3,17.4,30.16,NW,307,5.0,5.0,81,0.00,,,0.00,Wunderground v.1.15,2013-02-16 09:58:00,
2013-02-16 05:04:00,22.2,17.3,30.15,NW,306,5.0,5.0,81,0.00,,,0.00,Wunderground v.1.15,2013-02-16 10:04:00,
2013-02-16 05:10:00,22.1,17.2,30.16,NW,314,5.0,5.0,81,0.00,,,0.00,Wunderground v.1.15,2013-02-16 10:10:00,
2013-02-16 05:16:00,22.0,17.1,30.16,NW,311,4.0,5.0,81,0.00,,,0.00,Wunderground v.1.15,2013-02-16 10:16:00,
2013-02-16 05:22:00,21.8,16.9,30.16,NW,305,4.0,5.0,81,0.00,,,0.00,Wunderground v.1.15,2013-02-16 10:22:00,
2013-02-16 05:28:00,21.8,17.2,30.16,NW,306,4.0,5.0,82,0.00,,,0.00,Wunderground v.1.15,2013-02-16 10:28:00,
2013-02-16 05:33:00,21.7,17.1,30.16,WNW,292,4.0,5.0,82,0.00,,,0.00,Wunderground v.1.15,2013-02-16 10:33:00,
2013-02-16 05:39:00,21.6,17.0,30.16,WNW,297,3.0,5.0,82,0.00,,,0.00,Wunderground v.1.15,2013-02-16 10:39:00,
2013-02-16 05:45:00,21.7,17.1,30.16,WNW,284,3.0,5.0,82,0.00,,,0.00,Wunderground v.1.15,2013-02-16 10:45:00,
2013-02-16 05:51:00,21.6,17.0,30.16,WNW,289,4.0,5.0,82,0.00,,,0.00,Wunderground v.1.15,2013-02-16 10:51:00,
2013-02-16 05:57:00,21.4,16.8,30.16,WNW,288,3.0,5.0,82,0.00,,,0.00,Wunderground v.1.15,2013-02-16 10:57:00,
2013-02-16 06:03:00,21.3,16.7,30.16,WNW,289,3.0,5.0,82,0.00,,,0.00,Wunderground v.1.15,2013-02-16 11:03:00,
2013-02-16 06:08:00,21.3,16.7,30.16,West,269,3.0,5.0,82,0.00,,,0.00,Wunderground v.1.15,2013-02-16 11:08:00,
2013-02-16 06:14:00,21.2,16.6,30.16,WNW,283,4.0,4.0,82,0.00,,,0.00,Wunderground v.1.15,2013-02-16 11:14:00,
2013-02-16 06:20:00,21.0,16.4,30.16,WNW,285,3.0,4.0,82,0.00,,,0.00,Wunderground v.1.15,2013-02-16 11:20:00,
2013-02-16 06:26:00,20.8,16.5,30.16,West,268,2.0,3.0,83,0.00,,,0.00,Wunderground v.1.15,2013-02-16 11:26:00,
2013-02-16 06:32:00,20.6,16.3,30.15,WNW,299,1.0,3.0,83,0.00,,,0.00,Wunderground v.1.15,2013-02-16 11:32:00,
2013-02-16 06:38:00,20.5,16.4,30.16,WNW,286,2.0,3.0,84,0.00,,,0.00,Wunderground v.1.15,2013-02-16 11:38:00,
2013-02-16 06:44:00,20.3,16.5,30.16,West,278,3.0,3.0,85,0.00,,,0.00,Wunderground v.1.15,2013-02-16 11:44:00,
2013-02-16 06:50:00,20.4,16.6,30.16,WNW,286,3.0,4.0,85,0.00,,,0.00,Wunderground v.1.15,2013-02-16 11:50:00,
2013-02-16 06:56:00,20.4,16.6,30.15,WNW,286,3.0,4.0,85,0.00,,,0.00,Wunderground v.1.15,2013-02-16 11:56:00,
2013-02-16 07:02:00,20.7,16.9,30.15,WNW,285,3.0,4.0,85,0.00,,,0.00,Wunderground v.1.15,2013-02-16 12:02:00,
2013-02-16 07:08:00,20.6,16.8,30.16,WNW,285,3.0,5.0,85,0.00,,,0.00,Wunderground v.1.15,2013-02-16 12:08:00,
2013-02-16 07:14:00,20.7,16.9,30.16,WNW,298,2.0,5.0,85,0.00,,,0.00,Wunderground v.1.15,2013-02-16 12:14:00,
2013-02-16 07:20:00,20.8,16.7,30.16,WNW,287,3.0,5.0,84,0.00,,,0.00,Wunderground v.1.15,2013-02-16 12:20:00,
2013-02-16 07:26:00,20.5,16.4,30.16,WNW,298,4.0,5.0,84,0.00,,,0.00,Wunderground v.1.15,2013-02-16 12:26:00,
2013-02-16 07:32:00,20.2,15.9,30.16,NW,304,4.0,5.0,83,0.00,,,0.00,Wunderground v.1.15,2013-02-16 12:32:00,
2013-02-16 07:37:00,20.0,15.4,30.16,WNW,294,4.0,5.0,82,0.00,,,0.00,Wunderground v.1.15,2013-02-16 12:37:00,
2013-02-16 07:43:00,19.9,15.3,30.16,WNW,293,4.0,5.0,82,0.00,,,0.00,Wunderground v.1.15,2013-02-16 12:43:00,
2013-02-16 07:49:00,19.9,15.3,30.17,WNW,289,5.0,7.0,82,0.00,,,0.00,Wunderground v.1.15,2013-02-16 12:49:00,
2013-02-16 07:55:00,20.0,15.4,30.17,WNW,301,5.0,6.0,82,0.00,,,0.00,Wunderground v.1.15,2013-02-16 12:55:00,
2013-02-16 08:01:00,20.1,15.2,30.17,WNW,301,6.0,6.0,81,0.00,,,0.00,Wunderground v.1.15,2013-02-16 13:01:00,
2013-02-16 08:07:00,20.4,15.5,30.17,NW,304,6.0,7.0,81,0.00,,,0.00,Wunderground v.1.15,2013-02-16 13:07:00,
2013-02-16 08:13:00,20.8,15.6,30.17,NW,307,7.0,8.0,80,0.00,,,0.00,Wunderground v.1.15,2013-02-16 13:13:00,
2013-02-16 08:19:00,21.0,15.8,30.17,NW,311,7.0,9.0,80,0.00,,,0.00,Wunderground v.1.15,2013-02-16 13:19:00,
2013-02-16 08:25:00,21.2,15.7,30.17,NW,305,8.0,9.0,79,0.00,,,0.00,Wunderground v.1.15,2013-02-16 13:25:00,
2013-02-16 08:31:00,21.4,15.9,30.17,NW,305,8.0,9.0,79,0.00,,,0.00,Wunderground v.1.15,2013-02-16 13:31:00,
2013-02-16 08:37:00,21.6,16.4,30.17,WNW,299,7.0,8.0,80,0.00,,,0.00,Wunderground v.1.15,2013-02-16 13:37:00,
2013-02-16 08:43:00,21.7,16.2,30.17,NW,307,8.0,8.0,79,0.00,,,0.00,Wunderground v.1.15,2013-02-16 13:43:00,
2013-02-16 08:49:00,21.8,16.3,30.18,NW,320,9.0,12.0,79,0.00,,,0.00,Wunderground v.1.15,2013-02-16 13:49:00,
2013-02-16 08:54:00,21.9,16.4,30.18,NW,311,10.0,10.0,79,0.00,,,0.00,Wunderground v.1.15,2013-02-16 13:54:00,
2013-02-16 09:00:00,22.0,16.2,30.18,NW,324,9.0,11.0,78,0.00,,,0.00,Wunderground v.1.15,2013-02-16 14:00:00,
2013-02-16 09:06:00,22.1,16.3,30.18,NW,312,9.0,13.0,78,0.00,,,0.00,Wunderground v.1.15,2013-02-16 14:06:00,
2013-02-16 09:12:00,22.3,16.5,30.18,NNW,334,9.0,13.0,78,0.00,,,0.00,Wunderground v.1.15,2013-02-16 14:12:00,
2013-02-16 09:18:00,22.4,16.3,30.18,WNW,300,9.0,11.0,77,0.00,,,0.00,Wunderground v.1.15,2013-02-16 14:18:00,
2013-02-16 09:24:00,22.8,16.7,30.18,WNW,295,9.0,12.0,77,0.00,,,0.00,Wunderground v.1.15,2013-02-16 14:24:00,
2013-02-16 09:30:00,22.6,16.2,30.18,NW,305,10.0,16.0,76,0.00,,,0.00,Wunderground v.1.15,2013-02-16 14:30:00,
2013-02-16 09:36:00,22.6,15.9,30.18,NW,304,12.0,15.0,75,0.00,,,0.00,Wunderground v.1.15,2013-02-16 14:36:00,
2013-02-16 09:42:00,22.7,16.6,30.18,WNW,296,11.0,15.0,77,0.00,,,0.00,Wunderground v.1.15,2013-02-16 14:42:00,
2013-02-16 09:48:00,22.7,16.6,30.18,WNW,292,11.0,15.0,77,0.00,,,0.00,Wunderground v.1.15,2013-02-16 14:48:00,
2013-02-16 09:54:00,22.7,16.0,30.18,WNW,296,12.0,14.0,75,0.00,,,0.00,Wunderground v.1.15,2013-02-16 14:54:00,
2013-02-16 10:00:00,22.6,15.6,30.18,NW,313,12.0,15.0,74,0.00,,,0.00,Wunderground v.1.15,2013-02-16 15:00:00,
2013-02-16 10:06:00,22.7,15.7,30.18,WNW,290,12.0,18.0,74,0.00,,,0.00,Wunderground v.1.15,2013-02-16 15:06:00,
2013-02-16 10:12:00,22.6,15.6,30.18,NW,322,13.0,18.0,74,0.00,,,0.00,Wunderground v.1.15,2013-02-16 15:12:00,
2013-02-16 10:18:00,23.3,16.5,30.18,NW,326,10.0,12.0,75,0.00,,,0.00,Wunderground v.1.15,2013-02-16 15:18:00,
2013-02-16 10:24:00,23.1,16.0,30.18,WNW,295,10.0,10.0,74,0.00,,,0.00,Wunderground v.1.15,2013-02-16 15:24:00,
2013-02-16 10:30:00,23.0,15.9,30.18,NW,320,9.0,14.0,74,0.00,,,0.00,Wunderground v.1.15,2013-02-16 15:30:00,
2013-02-16 10:35:00,22.7,15.0,30.18,NW,314,11.0,15.0,72,0.00,,,0.00,Wunderground v.1.15,2013-02-16 15:35:00,
2013-02-16 10:41:00,23.0,15.3,30.18,NNW,335,11.0,15.0,72,0.00,,,0.00,Wunderground v.1.15,2013-02-16 15:41:00,
2013-02-16 10:47:00,23.5,16.1,30.18,WNW,291,9.0,11.0,73,0.00,,,0.00,Wunderground v.1.15,2013-02-16 15:47:00,
2013-02-16 10:53:00,23.8,15.8,30.18,NW,317,7.0,12.0,71,0.00,,,0.00,Wunderground v.1.15,2013-02-16 15:53:00,
2013-02-16 10:59:00,23.7,15.7,30.18,NW,307,11.0,16.0,71,0.00,,,0.00,Wunderground v.1.15,2013-02-16 15:59:00,
2013-02-16 11:05:00,24.7,16.3,30.18,WNW,287,10.0,16.0,70,0.00,,,0.00,Wunderground v.1.15,2013-02-16 16:05:00,
2013-02-16 11:11:00,24.5,16.1,30.19,WNW,291,11.0,16.0,70,0.00,,,0.00,Wunderground v.1.15,2013-02-16 16:11:00,
2013-02-16 11:17:00,24.5,15.8,30.19,WNW,293,11.0,13.0,69,0.00,,,0.00,Wunderground v.1.15,2013-02-16 16:17:00,
2013-02-16 11:23:00,24.4,15.3,30.19,NW,315,11.0,11.0,68,0.00,,,0.00,Wunderground v.1.15,2013-02-16 16:23:00,
2013-02-16 11:29:00,24.2,14.8,30.19,WNW,282,11.0,15.0,67,0.00,,,0.00,Wunderground v.1.15,2013-02-16 16:29:00,
2013-02-16 11:35:00,24.2,14.8,30.19,NW,312,10.0,11.0,67,0.00,,,0.00,Wunderground v.1.15,2013-02-16 16:35:00,
2013-02-16 11:41:00,23.8,13.7,30.19,NW,307,9.0,11.0,65,0.00,,,0.00,Wunderground v.1.15,2013-02-16 16:41:00,
2013-02-16 11:47:00,24.7,13.1,30.19,NW,312,10.0,14.0,61,0.00,,,0.00,Wunderground v.1.15,2013-02-16 16:47:00,
2013-02-16 11:52:00,24.6,13.1,30.18,NNW,332,11.0,14.0,61,0.00,,,0.00,Wunderground v.1.15,2013-02-16 16:52:00,
2013-02-16 11:58:00,25.6,15.5,30.18,WNW,293,9.0,11.0,65,0.00,,,0.00,Wunderground v.1.15,2013-02-16 16:58:00,
2013-02-16 12:04:00,25.5,14.6,30.18,NW,305,8.0,8.0,63,0.00,,,0.00,Wunderground v.1.15,2013-02-16 17:04:00,
2013-02-16 12:10:00,24.3,12.8,30.18,NNW,328,10.0,15.0,61,0.00,,,0.00,Wunderground v.1.15,2013-02-16 17:10:00,
2013-02-16 12:16:00,24.7,12.8,30.18,NW,315,13.0,14.0,60,0.00,,,0.00,Wunderground v.1.15,2013-02-16 17:16:00,
2013-02-16 12:22:00,25.0,13.4,30.18,WNW,291,12.0,18.0,61,0.00,,,0.00,Wunderground v.1.15,2013-02-16 17:22:00,
2013-02-16 12:28:00,25.2,13.2,30.18,WNW,299,10.0,13.0,60,0.00,,,0.00,Wunderground v.1.15,2013-02-16 17:28:00,
2013-02-16 12:34:00,25.2,12.1,30.18,NW,320,10.0,14.0,57,0.00,,,0.00,Wunderground v.1.15,2013-02-16 17:34:00,
2013-02-16 12:40:00,26.3,13.9,30.17,NW,306,10.0,14.0,59,0.00,,,0.00,Wunderground v.1.15,2013-02-16 17:40:00,
2013-02-16 12:46:00,25.8,12.2,30.17,NNW,328,11.0,12.0,56,0.00,,,0.00,Wunderground v.1.15,2013-02-16 17:46:00,
2013-02-16 12:52:00,26.0,13.2,30.17,West,278,10.0,12.0,58,0.00,,,0.00,Wunderground v.1.15,2013-02-16 17:52:00,
2013-02-16 12:58:00,25.9,12.3,30.16,NNW,330,10.0,17.0,56,0.00,,,0.00,Wunderground v.1.15,2013-02-16 17:58:00,
2013-02-16 13:04:00,26.0,11.6,30.16,NNW,344,11.0,11.0,54,0.00,,,0.00,Wunderground v.1.15,2013-02-16 18:04:00,
2013-02-16 13:10:00,26.4,13.2,30.16,NW,318,10.0,13.0,57,0.00,,,0.00,Wunderground v.1.15,2013-02-16 18:10:00,
2013-02-16 13:15:00,26.9,13.3,30.15,NW,323,9.0,9.0,56,0.00,,,0.00,Wunderground v.1.15,2013-02-16 18:15:00,
2013-02-16 13:21:00,26.7,12.3,30.16,NNW,327,10.0,14.0,54,0.00,,,0.00,Wunderground v.1.15,2013-02-16 18:21:00,
2013-02-16 13:27:00,26.3,12.7,30.16,NW,310,13.0,20.0,56,0.00,,,0.00,Wunderground v.1.15,2013-02-16 18:27:00,
2013-02-16 13:33:00,27.1,13.5,30.15,WNW,288,13.0,13.0,56,0.00,,,0.00,Wunderground v.1.15,2013-02-16 18:33:00,
2013-02-16 13:39:00,27.6,13.5,30.15,NW,307,12.0,18.0,55,0.00,,,0.00,Wunderground v.1.15,2013-02-16 18:39:00,
2013-02-16 13:45:00,27.0,12.5,30.15,NW,312,12.0,14.0,54,0.00,,,0.00,Wunderground v.1.15,2013-02-16 18:45:00,
2013-02-16 13:51:00,26.8,11.9,30.15,WNW,301,11.0,16.0,53,0.00,,,0.00,Wunderground v.1.15,2013-02-16 18:51:00,
2013-02-16 13:57:00,26.5,10.3,30.15,NW,320,13.0,18.0,50,0.00,,,0.00,Wunderground v.1.15,2013-02-16 18:57:00,
2013-02-16 14:03:00,27.4,11.6,30.15,NW,311,12.0,14.0,51,0.00,,,0.00,Wunderground v.1.15,2013-02-16 19:03:00,
2013-02-16 14:09:00,28.1,14.0,30.15,WNW,294,10.0,15.0,55,0.00,,,0.00,Wunderground v.1.15,2013-02-16 19:09:00,
2013-02-16 14:15:00,27.1,12.2,30.15,NW,318,11.0,13.0,53,0.00,,,0.00,Wunderground v.1.15,2013-02-16 19:15:00,
2013-02-16 14:21:00,27.5,13.0,30.15,NNW,330,11.0,16.0,54,0.00,,,0.00,Wunderground v.1.15,2013-02-16 19:21:00,
2013-02-16 14:27:00,27.1,12.2,30.15,NNW,337,12.0,16.0,53,0.00,,,0.00,Wunderground v.1.15,2013-02-16 19:27:00,
2013-02-16 14:33:00,27.0,12.5,30.15,NNW,343,11.0,11.0,54,0.00,,,0.00,Wunderground v.1.15,2013-02-16 19:33:00,
2013-02-16 14:38:00,27.6,12.7,30.14,NW,324,11.0,14.0,53,0.00,,,0.00,Wunderground v.1.15,2013-02-16 19:38:00,
2013-02-16 14:44:00,27.7,12.8,30.15,NW,306,12.0,17.0,53,0.00,,,0.00,Wunderground v.1.15,2013-02-16 19:44:00,
2013-02-16 14:50:00,27.8,12.9,30.14,North,354,12.0,17.0,53,0.00,,,0.00,Wunderground v.1.15,2013-02-16 19:50:00,
2013-02-16 14:56:00,28.1,12.7,30.14,WNW,283,11.0,16.0,52,0.00,,,0.00,Wunderground v.1.15,2013-02-16 19:56:00,
2013-02-16 15:02:00,27.4,11.2,30.15,NW,305,14.0,16.0,50,0.00,,,0.00,Wunderground v.1.15,2013-02-16 20:02:00,
2013-02-16 15:08:00,27.3,11.5,30.14,NW,322,16.0,21.0,51,0.00,,,0.00,Wunderground v.1.15,2013-02-16 20:08:00,
2013-02-16 15:14:00,28.0,12.6,30.14,WNW,293,15.0,15.0,52,0.00,,,0.00,Wunderground v.1.15,2013-02-16 20:14:00,
2013-02-16 15:20:00,27.2,11.0,30.15,NW,326,14.0,17.0,50,0.00,,,0.00,Wunderground v.1.15,2013-02-16 20:20:00,
2013-02-16 15:26:00,27.0,11.3,30.15,WNW,297,15.0,19.0,51,0.00,,,0.00,Wunderground v.1.15,2013-02-16 20:26:00,
2013-02-16 15:32:00,26.8,11.5,30.15,NW,324,15.0,20.0,52,0.00,,,0.00,Wunderground v.1.15,2013-02-16 20:32:00,
2013-02-16 15:37:00,26.5,11.7,30.15,WNW,301,14.0,16.0,53,0.00,,,0.00,Wunderground v.1.15,2013-02-16 20:37:00,
2013-02-16 15:43:00,26.5,11.2,30.14,WNW,292,13.0,23.0,52,0.00,,,0.00,Wunderground v.1.15,2013-02-16 20:43:00,
2013-02-16 15:49:00,27.2,11.4,30.15,WNW,289,15.0,23.0,51,0.00,,,0.00,Wunderground v.1.15,2013-02-16 20:49:00,
2013-02-16 15:55:00,26.3,11.0,30.15,NW,304,14.0,18.0,52,0.00,,,0.00,Wunderground v.1.15,2013-02-16 20:55:00,
2013-02-16 16:01:00,26.2,10.5,30.15,NW,307,15.0,18.0,51,0.00,,,0.00,Wunderground v.1.15,2013-02-16 21:01:00,
2013-02-16 16:06:00,25.8,11.0,30.15,WNW,300,16.0,17.0,53,0.00,,,0.00,Wunderground v.1.15,2013-02-16 21:06:00,
2013-02-16 16:12:00,25.7,11.3,30.15,West,280,14.0,17.0,54,0.00,,,0.00,Wunderground v.1.15,2013-02-16 21:12:00,
2013-02-16 16:18:00,26.0,11.2,30.15,NW,312,14.0,18.0,53,0.00,,,0.00,Wunderground v.1.15,2013-02-16 21:18:00,
2013-02-16 16:24:00,25.9,10.7,30.15,NNW,338,15.0,18.0,52,0.00,,,0.00,Wunderground v.1.15,2013-02-16 21:24:00,
2013-02-16 16:30:00,25.8,11.0,30.15,WNW,303,14.0,18.0,53,0.00,,,0.00,Wunderground v.1.15,2013-02-16 21:30:00,
2013-02-16 16:36:00,25.9,11.1,30.16,WNW,300,13.0,19.0,53,0.00,,,0.00,Wunderground v.1.15,2013-02-16 21:36:00,
2013-02-16 16:42:00,25.8,11.0,30.16,NW,305,14.0,19.0,53,0.00,,,0.00,Wunderground v.1.15,2013-02-16 21:42:00,
2013-02-16 16:48:00,25.9,11.5,30.16,NW,311,14.0,19.0,54,0.00,,,0.00,Wunderground v.1.15,2013-02-16 21:48:00,
2013-02-16 16:54:00,26.0,12.0,30.16,WNW,287,13.0,14.0,55,0.00,,,0.00,Wunderground v.1.15,2013-02-16 21:54:00,
2013-02-16 16:59:00,26.1,11.7,30.16,WNW,299,12.0,16.0,54,0.00,,,0.00,Wunderground v.1.15,2013-02-16 21:59:00,
2013-02-16 17:05:00,26.2,11.4,30.16,NW,311,13.0,14.0,53,0.00,,,0.00,Wunderground v.1.15,2013-02-16 22:05:00,
2013-02-16 17:11:00,26.3,11.5,30.16,NW,314,11.0,14.0,53,0.00,,,0.00,Wunderground v.1.15,2013-02-16 22:11:00,
2013-02-16 17:17:00,26.3,11.5,30.16,WNW,291,11.0,16.0,53,0.00,,,0.00,Wunderground v.1.15,2013-02-16 22:17:00,
2013-02-16 17:23:00,26.2,11.4,30.16,NW,309,12.0,12.0,53,0.00,,,0.00,Wunderground v.1.15,2013-02-16 22:23:00,
2013-02-16 17:29:00,25.7,11.3,30.16,NW,312,12.0,14.0,54,0.00,,,0.00,Wunderground v.1.15,2013-02-16 22:29:00,
2013-02-16 17:35:00,25.6,11.2,30.16,NNW,327,12.0,14.0,54,0.00,,,0.00,Wunderground v.1.15,2013-02-16 22:35:00,
2013-02-16 17:41:00,25.6,11.2,30.16,NW,319,12.0,15.0,54,0.00,,,0.00,Wunderground v.1.15,2013-02-16 22:41:00,
2013-02-16 17:47:00,25.4,11.9,30.17,NNW,329,11.0,13.0,56,0.00,,,0.00,Wunderground v.1.15,2013-02-16 22:47:00,
2013-02-16 17:53:00,25.3,11.8,30.16,NNW,338,9.0,9.0,56,0.00,,,0.00,Wunderground v.1.15,2013-02-16 22:53:00,
2013-02-16 17:59:00,25.3,11.8,30.17,NNW,330,9.0,13.0,56,0.00,,,0.00,Wunderground v.1.15,2013-02-16 22:59:00,
2013-02-16 18:05:00,25.2,11.7,30.17,NW,312,11.0,13.0,56,0.00,,,0.00,Wunderground v.1.15,2013-02-16 23:05:00,
2013-02-16 18:10:00,25.1,11.6,30.17,NW,304,12.0,17.0,56,0.00,,,0.00,Wunderground v.1.15,2013-02-16 23:10:00,
2013-02-16 18:16:00,24.9,11.4,30.17,WNW,300,12.0,13.0,56,0.00,,,0.00,Wunderground v.1.15,2013-02-16 23:16:00,
2013-02-16 18:21:00,24.9,11.8,30.17,NW,315,12.0,13.0,57,0.00,,,0.00,Wunderground v.1.15,2013-02-16 23:21:00,
2013-02-16 18:26:00,24.7,12.0,30.17,WNW,287,12.0,13.0,58,0.00,,,0.00,Wunderground v.1.15,2013-02-16 23:26:00,
2013-02-16 18:31:00,24.6,12.3,30.17,NW,310,13.0,15.0,59,0.00,,,0.00,Wunderground v.1.15,2013-02-16 23:31:00,
2013-02-16 18:37:00,24.5,12.2,30.17,NW,310,11.0,12.0,59,0.00,,,0.00,Wunderground v.1.15,2013-02-16 23:37:00,
2013-02-16 18:43:00,24.5,12.2,30.17,NW,309,9.0,9.0,59,0.00,,,0.00,Wunderground v.1.15,2013-02-16 23:43:00,
2013-02-16 18:49:00,24.5,13.0,30.17,NW,322,8.0,9.0,61,0.00,,,0.00,Wunderground v.1.15,2013-02-16 23:49:00,
2013-02-16 18:54:00,24.6,12.7,30.17,NW,311,7.0,7.0,60,0.00,,,0.00,Wunderground v.1.15,2013-02-16 23:54:00,
2013-02-16 19:00:00,24.6,12.7,30.18,NW,324,7.0,12.0,60,0.00,,,0.00,Wunderground v.1.15,2013-02-17 00:00:00,
2013-02-16 19:06:00,24.5,12.6,30.18,WNW,300,6.0,7.0,60,0.00,,,0.00,Wunderground v.1.15,2013-02-17 00:06:00,
2013-02-16 19:11:00,24.4,12.9,30.18,NW,308,5.0,7.0,61,0.00,,,0.00,Wunderground v.1.15,2013-02-17 00:11:00,
2013-02-16 19:17:00,24.4,12.5,30.18,NW,316,6.0,11.0,60,0.00,,,0.00,Wunderground v.1.15,2013-02-17 00:17:00,
2013-02-16 19:23:00,24.4,12.9,30.18,NW,310,7.0,8.0,61,0.00,,,0.00,Wunderground v.1.15,2013-02-17 00:23:00,
2013-02-16 19:29:00,24.4,12.9,30.18,NNW,340,7.0,8.0,61,0.00,,,0.00,Wunderground v.1.15,2013-02-17 00:29:00,
2013-02-16 19:35:00,24.3,12.8,30.18,WNW,302,8.0,8.0,61,0.00,,,0.00,Wunderground v.1.15,2013-02-17 00:35:00,
2013-02-16 19:41:00,24.2,13.0,30.18,WNW,293,7.0,10.0,62,0.00,,,0.00,Wunderground v.1.15,2013-02-17 00:41:00,
2013-02-16 19:47:00,24.2,13.0,30.18,WNW,297,6.0,8.0,62,0.00,,,0.00,Wunderground v.1.15,2013-02-17 00:47:00,
2013-02-16 19:52:00,24.2,13.0,30.18,NNW,337,7.0,9.0,62,0.00,,,0.00,Wunderground v.1.15,2013-02-17 00:52:00,
2013-02-16 19:58:00,24.0,13.2,30.18,WNW,300,6.0,6.0,63,0.00,,,0.00,Wunderground v.1.15,2013-02-17 00:58:00,
2013-02-16 20:04:00,24.0,13.2,30.18,NW,306,5.0,6.0,63,0.00,,,0.00,Wunderground v.1.15,2013-02-17 01:04:00,
2013-02-16 20:10:00,23.9,13.1,30.18,WNW,301,5.0,6.0,63,0.00,,,0.00,Wunderground v.1.15,2013-02-17 01:10:00,
2013-02-16 20:16:00,23.9,13.8,30.18,NW,304,4.0,5.0,65,0.00,,,0.00,Wunderground v.1.15,2013-02-17 01:16:00,
2013-02-16 20:22:00,23.8,13.4,30.18,WNW,303,3.0,5.0,64,0.00,,,0.00,Wunderground v.1.15,2013-02-17 01:22:00,
2013-02-16 20:28:00,23.8,13.4,30.18,NW,312,3.0,5.0,64,0.00,,,0.00,Wunderground v.1.15,2013-02-17 01:28:00,
2013-02-16 20:33:00,23.9,13.1,30.17,WNW,300,4.0,4.0,63,0.00,,,0.00,Wunderground v.1.15,2013-02-17 01:33:00,
2013-02-16 20:39:00,23.8,13.4,30.17,WNW,294,3.0,5.0,64,0.00,,,0.00,Wunderground v.1.15,2013-02-17 01:39:00,
2013-02-16 20:44:00,23.7,13.3,30.17,WNW,293,3.0,5.0,64,0.00,,,0.00,Wunderground v.1.15,2013-02-17 01:44:00,
2013-02-16 20:50:00,23.5,13.5,30.17,WNW,293,2.0,5.0,65,0.00,,,0.00,Wunderground v.1.15,2013-02-17 01:50:00,
2013-02-16 20:56:00,23.4,13.7,30.18,WNW,293,2.0,5.0,66,0.00,,,0.00,Wunderground v.1.15,2013-02-17 01:56:00,
2013-02-16 21:01:00,23.4,13.7,30.17,WNW,293,1.0,5.0,66,0.00,,,0.00,Wunderground v.1.15,2013-02-17 02:01:00,
2013-02-16 21:07:00,23.4,13.7,30.18,WNW,291,1.0,5.0,66,0.00,,,0.00,Wunderground v.1.15,2013-02-17 02:07:00,
2013-02-16 21:13:00,23.5,14.1,30.18,West,281,1.0,1.0,67,0.00,,,0.00,Wunderground v.1.15,2013-02-17 02:13:00,
2013-02-16 21:19:00,23.4,14.0,30.18,West,263,0.0,5.0,67,0.00,,,0.00,Wunderground v.1.15,2013-02-17 02:19:00,
2013-02-16 21:25:00,23.5,14.1,30.18,West,262,1.0,5.0,67,0.00,,,0.00,Wunderground v.1.15,2013-02-17 02:25:00,
2013-02-16 21:30:00,23.5,14.1,30.18,West,262,1.0,5.0,67,0.00,,,0.00,Wunderground v.1.15,2013-02-17 02:30:00,
2013-02-16 21:36:00,23.5,14.1,30.18,West,263,1.0,5.0,67,0.00,,,0.00,Wunderground v.1.15,2013-02-17 02:36:00,
2013-02-16 21:42:00,23.5,14.1,30.18,West,263,1.0,5.0,67,0.00,,,0.00,Wunderground v.1.15,2013-02-17 02:42:00,
2013-02-16 21:48:00,23.4,14.4,30.18,West,263,1.0,5.0,68,0.00,,,0.00,Wunderground v.1.15,2013-02-17 02:48:00,
2013-02-16 21:54:00,23.4,14.7,30.18,West,263,0.0,5.0,69,0.00,,,0.00,Wunderground v.1.15,2013-02-17 02:54:00,
2013-02-16 22:00:00,23.3,15.0,30.18,West,263,1.0,5.0,70,0.00,,,0.00,Wunderground v.1.15,2013-02-17 03:00:00,
2013-02-16 22:06:00,23.3,15.0,30.18,West,263,1.0,5.0,70,0.00,,,0.00,Wunderground v.1.15,2013-02-17 03:06:00,
2013-02-16 22:11:00,23.2,14.5,30.18,West,262,0.0,5.0,69,0.00,,,0.00,Wunderground v.1.15,2013-02-17 03:11:00,
2013-02-16 22:17:00,23.2,15.2,30.19,West,262,1.0,5.0,71,0.00,,,0.00,Wunderground v.1.15,2013-02-17 03:17:00,
2013-02-16 22:23:00,23.2,14.5,30.19,West,276,2.0,5.0,69,0.00,,,0.00,Wunderground v.1.15,2013-02-17 03:23:00,
2013-02-16 22:29:00,23.2,14.9,30.18,West,276,1.0,5.0,70,0.00,,,0.00,Wunderground v.1.15,2013-02-17 03:29:00,
2013-02-16 22:35:00,23.1,15.1,30.19,West,280,1.0,5.0,71,0.00,,,0.00,Wunderground v.1.15,2013-02-17 03:35:00,
2013-02-16 22:41:00,23.0,15.0,30.19,West,280,2.0,5.0,71,0.00,,,0.00,Wunderground v.1.15,2013-02-17 03:41:00,
2013-02-16 22:47:00,22.9,14.9,30.19,West,280,2.0,5.0,71,0.00,,,0.00,Wunderground v.1.15,2013-02-17 03:47:00,
2013-02-16 22:53:00,23.1,14.8,30.19,NW,320,2.0,5.0,70,0.00,,,0.00,Wunderground v.1.15,2013-02-17 03:53:00,
2013-02-16 22:59:00,23.3,15.0,30.19,NW,321,2.0,5.0,70,0.00,,,0.00,Wunderground v.1.15,2013-02-17 03:59:00,
2013-02-16 23:05:00,23.1,14.8,30.19,NW,321,1.0,5.0,70,0.00,,,0.00,Wunderground v.1.15,2013-02-17 04:05:00,
2013-02-16 23:11:00,23.1,15.4,30.19,NW,321,1.0,5.0,72,0.00,,,0.00,Wunderground v.1.15,2013-02-17 04:11:00,
2013-02-16 23:16:00,23.0,15.3,30.19,NW,321,2.0,5.0,72,0.00,,,0.00,Wunderground v.1.15,2013-02-17 04:16:00,
2013-02-16 23:22:00,23.0,15.6,30.19,NW,323,3.0,5.0,73,0.00,,,0.00,Wunderground v.1.15,2013-02-17 04:22:00,
2013-02-16 23:28:00,23.1,15.1,30.19,NNW,332,3.0,6.0,71,0.00,,,0.00,Wunderground v.1.15,2013-02-17 04:28:00,
2013-02-16 23:33:00,23.2,15.5,30.19,NNE,12,4.0,6.0,72,0.00,,,0.00,Wunderground v.1.15,2013-02-17 04:33:00,
2013-02-16 23:39:00,23.2,15.5,30.19,NW,308,5.0,7.0,72,0.00,,,0.00,Wunderground v.1.15,2013-02-17 04:39:00,
2013-02-16 23:45:00,23.2,15.8,30.18,North,11,4.0,5.0,73,0.00,,,0.00,Wunderground v.1.15,2013-02-17 04:45:00,
2013-02-16 23:51:00,23.1,15.7,30.18,North,354,4.0,6.0,73,0.00,,,0.00,Wunderground v.1.15,2013-02-17 04:51:00,
2013-02-16 23:57:00,23.1,16.0,30.18,North,350,4.0,5.0,74,0.00,,,0.00,Wunderground v.1.15,2013-02-17 04:57:00,